Retour au catalogue

DELTA 1 DEB

ActifPO
NORAD 8969·DEBRIS·🇺🇸 United States

Lancé Jan 22, 1975 depuis Vandenberg Space Force Base

Loading…

Prochains Passages (prochaines 24 heures)

TLE

FraisSource: Space-Track

Époque: Sep 14, 2026, 10:19 UTC

1 08969U 75004BB  26257.42995915  .00000638  00000-0  20536-3 0  9990
2 08969  97.6844 328.8135 0115808 186.7285 173.2356 14.38442200628698

Suivez DELTA 1 DEB en temps réel avec AllMySat

Download on the App Store